Date String (YYYY-MM-DD hh:mm:ss) UTC,Instrument flags,absolute air pressure of the measurement (hPa),sample flow rate (lpm),inlet stack bypass flow (lpm),air temperature of the measurement (°C),ambient temperature measured by the external sensor (°C),aerosol sample conditioner tube jacket temperature (°C),OPC LED temperature (°C),internal box temperature (°C),relative humidity of the measurement (%),span deviation,mass concentration of particles derived from Lorenz-Mie calculation of OPC scattering (μg/m³),mass concentration of particles derived from Lorenz-Mie calculation of OPC scattering (μg/m³),mass concentration of particles derived from Lorenz-Mie calculation of OPC scattering (μg/m³)
DateTimeUTC,F1_M11,P_M11,Q1_M11,Q2_M11,T1_M11,T2_M11,T3_M11,T4_M11,T5_M11,U1_M11,ZSPAN_M11,X0_M11,X2_M11,X1_M11
2023-07-23 06:00:00,SystemResetWarning,0834.8,5.00,000.00,029.1,026.7,000.0,037.6,030.6,24.8,0000.0,0012.58,0007.61,0007.14
2023-07-23 06:01:00,SystemResetWarning,0834.7,5.00,000.00,029.1,027.0,000.0,037.6,030.7,24.6,0000.1,0012.29,0007.59,0007.13
2023-07-23 06:02:00,SystemResetWarning,0834.7,5.00,000.00,029.1,027.2,000.0,037.6,030.7,24.7,0000.6,0012.40,0007.55,0007.12
2023-07-23 06:03:00,SystemResetWarning,0834.8,5.00,000.00,029.2,027.4,000.0,037.7,030.8,24.6,0000.0,0012.71,0007.56,0007.12
2023-07-23 06:04:00,SystemResetWarning,0834.8,5.00,000.00,029.2,027.6,000.0,037.7,030.8,24.5,0000.6,0011.11,0007.52,0007.11
2023-07-23 06:05:00,SystemResetWarning,0834.8,5.01,000.00,029.2,027.7,000.0,037.7,030.9,24.6,0000.8,0010.97,0007.47,0007.09
2023-07-23 06:06:00,SystemResetWarning,0834.7,5.00,000.00,029.3,027.9,000.0,037.7,030.9,24.5,0001.2,0011.09,0007.44,0007.09
2023-07-23 06:07:00,SystemResetWarning,0834.9,5.00,000.00,029.3,028.0,000.0,037.7,030.9,24.4,0001.0,0011.33,0007.43,0007.08
2023-07-23 06:08:00,SystemResetWarning,0834.8,5.00,000.00,029.3,028.1,000.0,037.7,031.0,24.5,0000.0,0011.47,0007.46,0007.08
2023-07-23 06:09:00,SystemResetWarning,0834.7,5.00,000.00,029.3,028.1,000.0,037.7,031.0,24.5,0000.6,0011.45,0007.47,0007.09
2023-07-23 06:10:00,SystemResetWarning,0834.8,5.00,000.00,029.4,028.2,000.0,037.8,031.1,24.2,0000.0,0011.49,0007.51,0007.08
2023-07-23 06:11:00,SystemResetWarning,0834.8,5.00,000.00,029.4,028.3,000.0,037.8,031.1,24.1,0000.2,0011.56,0007.54,0007.08
2023-07-23 06:12:00,SystemResetWarning,0834.7,5.00,000.00,029.5,028.3,000.0,037.8,031.1,24.1,0000.6,0011.63,0007.54,0007.09
2023-07-23 06:13:00,SystemResetWarning,0834.7,5.00,000.00,029.5,028.4,000.0,037.8,031.2,23.9,0000.8,0011.79,0007.59,0007.11
2023-07-23 06:14:00,SystemResetWarning,0834.7,5.00,000.00,029.5,028.2,000.0,037.8,031.2,23.8,0000.8,0011.65,0007.59,0007.11
2023-07-23 06:15:00,SystemResetWarning,0834.7,4.99,000.00,029.5,026.4,000.0,037.7,031.0,24.0,0000.8,0011.81,0007.60,0007.12
2023-07-23 06:16:00,SystemResetWarning,0834.7,5.01,000.00,029.4,025.3,000.0,037.6,030.7,24.3,0001.3,0012.19,0007.62,0007.13
2023-07-23 06:17:00,SystemResetWarning,0835.0,5.01,000.00,029.3,025.3,000.0,037.6,030.5,24.8,0000.0,0012.34,0007.63,0007.13
2023-07-23 06:18:00,SystemResetWarning,0835.3,5.01,000.00,029.2,025.7,000.0,037.7,030.4,24.7,0000.0,0012.14,0007.63,0007.13
2023-07-23 06:19:00,SystemResetWarning,0835.3,5.00,000.00,029.2,026.1,000.0,037.7,030.5,24.7,0000.0,0011.98,0007.61,0007.14
2023-07-23 06:20:00,SystemResetWarning,0835.0,5.00,000.00,029.2,026.5,000.0,037.7,030.6,24.8,0000.2,0011.96,0007.58,0007.13
2023-07-23 06:21:00,SystemResetWarning,0834.6,5.01,000.00,029.2,026.8,000.0,037.7,030.7,24.5,0001.3,0011.90,0007.54,0007.12
2023-07-23 06:22:00,SystemResetWarning,0834.6,5.00,000.00,029.2,027.1,000.0,037.7,030.7,24.6,0000.0,0012.02,0007.53,0007.11
2023-07-23 06:23:00,SystemResetWarning,0834.7,4.99,000.00,029.2,027.3,000.0,037.7,030.8,24.1,0000.0,0011.92,0007.50,0007.09
2023-07-23 06:24:00,SystemResetWarning,0834.9,5.00,000.00,029.2,027.5,000.0,037.7,030.8,24.0,0000.0,0011.75,0007.47,0007.09
2023-07-23 06:25:00,SystemResetWarning,0834.6,5.02,000.00,029.2,027.7,000.0,037.7,030.8,23.9,0000.7,0011.42,0007.46,0007.08
2023-07-23 06:26:00,SystemResetWarning,0834.8,5.00,000.00,029.3,027.8,000.0,037.7,030.9,23.9,0002.2,0011.37,0007.49,0007.08
2023-07-23 06:27:00,SystemResetWarning,0834.8,5.00,000.00,029.3,027.9,000.0,037.7,030.9,23.9,0001.8,0011.44,0007.49,0007.07
2023-07-23 06:28:00,SystemResetWarning,0834.7,5.00,000.00,029.3,028.0,000.0,037.7,031.0,23.9,0001.4,0011.12,0007.48,0007.06
2023-07-23 06:29:00,SystemResetWarning,0834.6,5.01,000.00,029.3,028.1,000.0,037.8,031.0,23.9,0000.7,0010.99,0007.49,0007.06
2023-07-23 06:30:00,SystemResetWarning,0834.6,5.00,000.00,029.4,028.2,000.0,037.8,031.0,24.0,0000.1,0010.98,0007.49,0007.06
2023-07-23 06:31:00,SystemResetWarning,0834.7,5.00,000.00,029.4,028.2,000.0,037.8,031.1,23.9,-000.2,0010.99,0007.49,0007.06
2023-07-23 06:32:00,SystemResetWarning,0834.7,5.00,000.00,029.4,028.3,000.0,037.8,031.1,24.0,-000.2,0011.14,0007.53,0007.08
2023-07-23 06:33:00,SystemResetWarning,0834.7,5.00,000.00,029.5,028.4,000.0,037.8,031.2,23.9,-001.0,0011.42,0007.55,0007.10
2023-07-23 06:34:00,SystemResetWarning,0834.7,5.00,000.00,029.5,028.4,000.0,037.9,031.2,23.9,-001.1,0011.56,0007.56,0007.11
2023-07-23 06:35:00,SystemResetWarning,0834.6,4.98,000.00,029.5,026.9,000.0,037.8,031.1,24.1,-001.4,0011.69,0007.59,0007.11
2023-07-23 06:36:00,SystemResetWarning,0834.9,5.01,000.00,029.4,025.4,000.0,037.7,030.8,24.3,-001.1,0011.65,0007.62,0007.12
2023-07-23 06:37:00,SystemResetWarning,0835.0,5.01,000.00,029.3,025.2,000.0,037.6,030.5,24.0,-000.9,0011.61,0007.61,0007.13
2023-07-23 06:38:00,SystemResetWarning,0835.0,5.00,000.00,029.2,025.5,000.0,037.7,030.4,24.1,-000.5,0011.28,0007.64,0007.14
2023-07-23 06:39:00,SystemResetWarning,0835.1,5.00,000.00,029.2,025.9,000.0,037.7,030.5,24.2,-000.8,0011.25,0007.66,0007.16
2023-07-23 06:40:00,SystemResetWarning,0835.0,5.00,000.00,029.2,026.3,000.0,037.7,030.6,24.3,-000.2,0011.25,0007.67,0007.16
2023-07-23 06:41:00,SystemResetWarning,0835.1,5.00,000.00,029.2,026.7,000.0,037.7,030.6,24.2,0000.2,0011.27,0007.66,0007.16
2023-07-23 06:42:00,SystemResetWarning,0835.1,4.99,000.00,029.2,027.0,000.0,037.7,030.7,24.1,0000.2,0011.21,0007.65,0007.15
2023-07-23 06:43:00,SystemResetWarning,0835.0,4.99,000.00,029.2,027.2,000.0,037.7,030.7,23.9,0000.0,0011.16,0007.63,0007.15
2023-07-23 06:44:00,SystemResetWarning,0834.8,4.99,000.00,029.2,027.4,000.0,037.7,030.8,24.0,0000.0,0011.37,0007.59,0007.15
2023-07-23 06:45:00,SystemResetWarning,0834.6,5.00,000.00,029.2,027.6,000.0,037.7,030.8,24.0,0000.2,0011.22,0007.59,0007.14
2023-07-23 06:46:00,SystemResetWarning,0834.5,5.00,000.00,029.3,027.7,000.0,037.7,030.9,24.2,0000.6,0011.09,0007.56,0007.14
2023-07-23 06:47:00,SystemResetWarning,0834.5,5.01,000.00,029.3,027.8,000.0,037.7,030.9,23.9,0000.7,0011.18,0007.56,0007.14
2023-07-23 06:48:00,SystemResetWarning,0834.5,4.99,000.00,029.3,027.9,000.0,037.7,030.9,23.8,0000.6,0011.13,0007.55,0007.13
2023-07-23 06:49:00,SystemResetWarning,0834.5,4.99,000.00,029.3,028.0,000.0,037.7,031.0,24.3,0000.0,0011.46,0007.52,0007.12
2023-07-23 06:50:00,SystemResetWarning,0834.5,5.01,000.00,029.4,028.1,000.0,037.8,031.0,23.9,0000.0,0011.67,0007.49,0007.11
2023-07-23 06:51:00,SystemResetWarning,0834.5,5.01,000.00,029.4,028.2,000.0,037.8,031.0,23.3,0000.0,0011.62,0007.48,0007.10
2023-07-23 06:52:00,SystemResetWarning,0834.5,5.00,000.00,029.4,028.2,000.0,037.8,031.1,23.2,0000.0,0011.68,0007.49,0007.10
2023-07-23 06:53:00,SystemResetWarning,0834.5,4.99,000.00,029.5,028.3,000.0,037.8,031.1,23.5,0000.0,0012.19,0007.51,0007.10
2023-07-23 06:54:00,SystemResetWarning,0834.5,4.99,000.00,029.5,028.3,000.0,037.8,031.1,23.6,0000.0,0012.34,0007.54,0007.09
2023-07-23 06:55:00,SystemResetWarning,0834.5,5.00,000.00,029.5,028.4,000.0,037.9,031.2,23.3,0000.0,0011.79,0007.52,0007.10
2023-07-23 06:56:00,SystemResetWarning,0834.5,5.01,000.00,029.5,028.4,000.0,037.9,031.2,23.3,0000.0,0012.05,0007.50,0007.09
2023-07-23 06:57:00,SystemResetWarning,0834.5,4.99,000.00,029.6,027.7,000.0,037.9,031.1,23.2,0000.0,0012.46,0007.48,0007.08
2023-07-23 06:58:00,SystemResetWarning,0834.5,5.00,000.00,029.5,025.8,000.0,037.7,030.9,23.1,0000.0,0012.56,0007.47,0007.07
2023-07-23 06:59:00,SystemResetWarning,0834.4,5.01,000.00,029.4,025.2,000.0,037.7,030.7,23.2,0000.0,0012.55,0007.47,0007.06
